Weather History for Skagway, AK

Change the Weather History Date:

Tuesday, May 8, 2012

  Actual Average Record
Temperature  
Mean Temperature 42 °F -  
Max Temperature 45 °F 52 °F 70 °F (1972)
Min Temperature 39 °F 38 °F 32 °F (1991)
Degree Days  
Heating Degree Days 23    
Moisture  
Dew Point 35 °F    
Average Humidity 74    
Maximum Humidity 87    
Minimum Humidity 65    
Precipitation  
Precipitation 0.09 in - - ()
Sea Level Pressure  
Sea Level Pressure 29.72 in    
Wind  
Wind Speed 23 mph (SSW)    
Max Wind Speed 39 mph    
Max Gust Speed 52 mph    
Visibility 9 miles    
Events Rain    
Averages and records for this station are not official NWS values.
T = Trace of Precipitation, MM = Missing Value Source: NWS Daily Summary

Daily Weather History Graph

Daily Weather History Graph

Search for Another Location

Airport:

Trip Planner

Search our weather history database for the weather conditions in past years. The results will help you decide how hot, cold, wet, or windy it might be!

Date:

Astronomy

May. 08, 2012 Rise Set
Actual Time 4:42 AM AKDT 9:14 PM AKDT
Civil Twilight 3:45 AM AKDT 10:11 PM AKDT
Nautical Twilight 2:06 AM AKDT 11:55 PM AKDT
Astronomical Twilight Sun does not rise Sun does not rise
Moon No Moon Rise 6:32 AM AKDT (5/8)
Length of Visible Light 18h 25m
Length of Day
16h 32m
Waning Gibbous, 89% of the Moon is Illuminated
May 8
Waning Gibbous
May 12
Last Quarter
May 20
New
May 28
First Quarter
Jun 4
Full

Hourly Weather History & Observations

Time (AKDT) Temp. Windchill Dew Point Humidity Pressure Visibility Wind Dir Wind Speed Gust Speed Precip Events Conditions
12:53 AM 45.0 °F 37.9 °F 37.9 °F 76% 29.55 in 10.0 mi SSW 16.1 mph 23.0 mph N/A   Mostly Cloudy
1:53 AM 44.1 °F 34.0 °F 37.9 °F 79% 29.57 in 10.0 mi SSW 29.9 mph 38.0 mph 0.01 in   Overcast
2:53 AM 44.1 °F 34.0 °F 35.1 °F 71% 29.60 in 10.0 mi SSW 29.9 mph 35.7 mph 0.00 in   Clear
3:53 AM 44.1 °F 35.0 °F 33.1 °F 65% 29.63 in 10.0 mi SSW 24.2 mph - N/A   Scattered Clouds
4:53 AM 43.0 °F 36.4 °F 33.1 °F 68% 29.65 in 10.0 mi South 12.7 mph - N/A   Overcast
5:53 AM 43.0 °F 36.0 °F 34.0 °F 71% 29.68 in 10.0 mi SSW 13.8 mph 26.5 mph N/A   Overcast
6:53 AM 43.0 °F 34.8 °F 35.1 °F 74% 29.70 in 10.0 mi SSW 18.4 mph 27.6 mph N/A   Overcast
7:28 AM 42.8 °F 33.3 °F 35.6 °F 76% 29.69 in 5.0 mi SSW 24.2 mph - 0.00 in   Haze
7:53 AM 42.1 °F 34.5 °F 36.0 °F 79% 29.70 in 10.0 mi SSW 15.0 mph 24.2 mph 0.00 in   Overcast
8:53 AM 42.1 °F 32.3 °F 36.0 °F 79% 29.70 in 10.0 mi SSW 24.2 mph 31.1 mph 0.00 in Rain Light Rain
9:53 AM 39.9 °F 29.2 °F 36.0 °F 86% 29.72 in 2.5 mi SSW 25.3 mph 36.8 mph 0.01 in Rain Rain
10:07 AM 39.2 °F 29.3 °F 35.6 °F 87% 29.72 in 3.0 mi SSW 20.7 mph 28.8 mph 0.03 in Rain Rain
10:53 AM 42.1 °F 30.4 °F 36.0 °F 79% 29.71 in 7.0 mi SSW 35.7 mph 46.0 mph 0.07 in   Overcast
11:40 AM 42.8 °F 31.8 °F 35.6 °F 76% 29.73 in 10.0 mi SSW 33.4 mph 48.3 mph N/A   Mostly Cloudy
11:53 AM 42.1 °F 30.4 °F 35.1 °F 76% 29.73 in 10.0 mi SSW 35.7 mph 51.8 mph N/A   Scattered Clouds
12:19 PM 42.8 °F 31.0 °F 35.6 °F 76% 29.73 in 10.0 mi SSW 39.1 mph 50.6 mph N/A   Mostly Cloudy
12:29 PM 42.8 °F 31.6 °F 35.6 °F 76% 29.74 in 10.0 mi SSW 34.5 mph 48.3 mph N/A   Overcast
12:53 PM 42.1 °F 30.3 °F 34.0 °F 73% 29.75 in 10.0 mi SW 36.8 mph 44.9 mph N/A   Mostly Cloudy
1:53 PM 42.1 °F 31.5 °F 36.0 °F 79% 29.79 in 9.0 mi SSW 28.8 mph 41.4 mph N/A   Mostly Cloudy
2:08 PM 42.8 °F 31.6 °F 35.6 °F 76% 29.79 in 10.0 mi SSW 34.5 mph 42.6 mph N/A   Mostly Cloudy
2:53 PM 43.0 °F 32.7 °F 35.1 °F 74% 29.81 in 10.0 mi SSW 28.8 mph 36.8 mph 0.00 in   Overcast
3:53 PM 43.0 °F 32.7 °F 34.0 °F 71% 29.80 in 10.0 mi SSW 28.8 mph 38.0 mph N/A   Partly Cloudy
4:53 PM 44.1 °F 35.9 °F 34.0 °F 68% 29.79 in 10.0 mi SSW 19.6 mph 25.3 mph 0.00 in   Partly Cloudy
5:53 PM 44.1 °F 34.2 °F 35.1 °F 71% 29.78 in 10.0 mi SSW 28.8 mph 35.7 mph N/A   Mostly Cloudy
6:53 PM 43.0 °F 34.5 °F 34.0 °F 71% 29.78 in 10.0 mi SSW 19.6 mph 26.5 mph N/A   Mostly Cloudy
7:53 PM 42.1 °F 33.9 °F 34.0 °F 73% 29.79 in 10.0 mi SSW 17.3 mph - N/A   Mostly Cloudy
8:53 PM 42.1 °F 36.1 °F 33.1 °F 70% 29.78 in 10.0 mi SSW 10.4 mph - N/A   Mostly Cloudy
9:53 PM 42.1 °F 34.9 °F 32.0 °F 67% 29.78 in 10.0 mi SSW 13.8 mph - N/A   Overcast
10:53 PM 42.1 °F 34.9 °F 33.1 °F 70% 29.77 in 10.0 mi SSW 13.8 mph - N/A   Scattered Clouds
11:53 PM 41.0 °F 33.5 °F 32.0 °F 70% 29.76 in 10.0 mi SSW 13.8 mph - N/A   Scattered Clouds